| time (UTC) | temp C | wind direction | speed KPH | gust KPH | rain 1hr cm | rain 24hr cm | rain mn cm | humidity % | barometer mb |
| 20260831115004 | 20 | 63 | 3.2 | 9.7 | 0.00 | 0.51 | 0.48 | 99 | 1012.6 |
| 20260831114004 | 20 | 356 | 3.2 | 8.0 | 0.00 | 0.51 | 0.48 | 99 | 1012.8 |
| 20260831113004 | 20 | 266 | 3.2 | 8.0 | 0.00 | 0.51 | 0.48 | 99 | 1012.5 |
| 20260831111004 | 19 | 17 | 3.2 | 4.8 | 0.00 | 0.51 | 0.48 | 99 | 1012.6 |
| 20260831110004 | 19 | 40 | 1.6 | 4.8 | 0.00 | 0.51 | 0.48 | 99 | 1012.4 |
| 20260831105004 | 19 | 54 | 1.6 | 8.0 | 0.00 | 0.51 | 0.48 | 99 | 1012.6 |
| 20260831104004 | 19 | 83 | 3.2 | 8.0 | 0.00 | 0.51 | 0.48 | 99 | 1012.7 |
| 20260831103005 | 19 | 98 | 3.2 | 4.8 | 0.15 | 0.51 | 0.48 | 99 | 1012.7 |
| 20260831101004 | 19 | 90 | 3.2 | 8.0 | 0.15 | 0.53 | 0.48 | 99 | 1013.0 |
| 20260831100004 | 19 | 357 | 1.6 | 4.8 | 0.15 | 0.53 | 0.48 | 99 | 1013.0 |
| 20260831095004 | 19 | 10 | 3.2 | 8.0 | 0.15 | 0.53 | 0.48 | 99 | 1013.0 |
| 20260831094004 | 19 | 11 | 3.2 | 3.2 | 0.25 | 0.51 | 0.48 | 99 | 1012.9 |
| 20260831093005 | 19 | 59 | 3.2 | 4.8 | 0.33 | 0.38 | 0.33 | 99 | 1013.1 |
| 20260831092004 | 19 | 91 | 1.6 | 4.8 | 0.33 | 0.38 | 0.33 | 99 | 1013.1 |
| 20260831091004 | 19 | 67 | 1.6 | 4.8 | 0.33 | 0.38 | 0.33 | 99 | 1013.2 |
| 20260831085004 | 19 | 22 | 3.2 | 4.8 | 0.33 | 0.38 | 0.33 | 99 | 1013.2 |
| 20260831084004 | 19 | 56 | 3.2 | 8.0 | 0.23 | 0.25 | 0.23 | 99 | 1013.4 |
| 20260831083004 | 19 | 4 | 1.6 | 3.2 | 0.00 | 0.05 | 0.00 | 99 | 1013.2 |
| 20260831082004 | 19 | 45 | 1.6 | 3.2 | 0.00 | 0.05 | 0.00 | 99 | 1013.5 |
| 20260831081004 | 19 | 30 | 1.6 | 4.8 | 0.00 | 0.05 | 0.00 | 99 | 1013.8 |
| 20260831075004 | 19 | 61 | 1.6 | 4.8 | 0.00 | 0.05 | 0.00 | 99 | 1014.1 |
| 20260831074004 | 19 | 0 | 1.6 | 3.2 | 0.00 | 0.05 | 0.00 | 99 | 1014.1 |
| 20260831073004 | 19 | 24 | 0.0 | 3.2 | 0.00 | 0.05 | 0.00 | 99 | 1014.2 |
| 20260831072004 | 20 | 357 | 0.0 | 1.6 | 0.00 | 0.05 | 0.00 | 99 | 1014.4 |
| 20260831071004 | 20 | 16 | 0.0 | 1.6 | 0.00 | 0.05 | 0.00 | 99 | 1014.4 |
| 20260831070004 | 20 | 356 | 1.6 | 1.6 | 0.00 | 0.05 | 0.00 | 99 | 1014.3 |
| 20260831065003 | 20 | 37 | 0.0 | 3.2 | 0.00 | 0.05 | 0.00 | 99 | 1014.4 |
| 20260831064005 | 20 | 338 | 1.6 | 3.2 | 0.00 | 0.05 | 0.00 | 99 | 1014.4 |
| 20260831063004 | 20 | 5 | 1.6 | 4.8 | 0.00 | 0.05 | 0.00 | 99 | 1014.2 |
| 20260831062004 | 20 | 36 | 1.6 | 4.8 | 0.00 | 0.05 | 0.00 | 99 | 1014.4 |
| 20260831061003 | 20 | 2 | 1.6 | 3.2 | 0.00 | 0.05 | 0.00 | 99 | 1014.3 |
| 20260831060004 | 20 | 24 | 1.6 | 3.2 | 0.00 | 0.05 | 0.00 | 99 | 1014.3 |
| 20260831055004 | 20 | 45 | 1.6 | 3.2 | 0.00 | 0.05 | 0.00 | 99 | 1014.7 |
| 20260831054004 | 20 | 0 | 0.0 | 1.6 | 0.00 | 0.05 | 0.00 | 99 | 1015.0 |
| 20260831053004 | 20 | 2 | 0.0 | 1.6 | 0.00 | 0.05 | 0.00 | 99 | 1014.9 |
| 20260831051004 | 20 | 20 | 1.6 | 4.8 | 0.00 | 0.05 | 0.00 | 99 | 1014.8 |
| 20260831045004 | 20 | 58 | 1.6 | 3.2 | 0.00 | 0.03 | 0.03 | 99 | 1014.6 |
| 20260831044005 | 20 | 26 | 1.6 | 3.2 | 0.00 | 0.03 | 0.03 | 99 | 1014.8 |
| 20260831043003 | 20 | 3 | 1.6 | 1.6 | 0.00 | 0.03 | 0.03 | 99 | 1015.1 |
| 20260831042004 | 20 | 353 | 1.6 | 1.6 | 0.00 | 0.03 | 0.03 | 99 | 1015.0 |
| 20260831040004 | 20 | 31 | 1.6 | 1.6 | 0.00 | 0.03 | 0.03 | 99 | 1014.8 |
| 20260831035003 | 20 | 16 | 0.0 | 3.2 | 0.00 | 0.03 | 0.03 | 99 | 1014.8 |
| 20260831033004 | 20 | 55 | 1.6 | 4.8 | 0.00 | 0.03 | 0.03 | 99 | 1014.8 |
| 20260831031004 | 20 | 19 | 1.6 | 4.8 | 0.00 | 0.03 | 0.03 | 99 | 1014.8 |
| 20260831030004 | 20 | 10 | 1.6 | 3.2 | 0.00 | 0.03 | 0.03 | 99 | 1014.7 |
| 20260831025004 | 20 | 9 | 1.6 | 3.2 | 0.00 | 0.03 | 0.03 | 99 | 1014.7 |
| 20260831023004 | 20 | 26 | 1.6 | 4.8 | 0.00 | 0.03 | 0.03 | 99 | 1014.4 |
| 20260831022004 | 20 | 94 | 3.2 | 4.8 | 0.00 | 0.03 | 0.03 | 99 | 1014.6 |
| 20260831021004 | 20 | 29 | 1.6 | 1.6 | 0.00 | 0.03 | 0.03 | 99 | 1014.6 |
| 20260831020003 | 20 | 354 | 0.0 | 3.2 | 0.00 | 0.03 | 0.03 | 99 | 1014.5 |
| 20260831015004 | 20 | 6 | 1.6 | 1.6 | 0.00 | 0.03 | 0.03 | 99 | 1014.6 |
| 20260831014004 | 20 | 4 | 1.6 | 1.6 | 0.00 | 0.03 | 0.03 | 99 | 1014.7 |
| 20260831013005 | 20 | 28 | 0.0 | 1.6 | 0.00 | 0.03 | 0.03 | 99 | 1014.7 |
| 20260831012004 | 20 | 357 | 1.6 | 1.6 | 0.00 | 0.03 | 0.03 | 99 | 1014.4 |
| 20260831011004 | 20 | 353 | 1.6 | 1.6 | 0.00 | 0.03 | 0.03 | 99 | 1014.5 |
| 20260831005004 | 20 | 352 | 1.6 | 1.6 | 0.00 | 0.03 | 0.03 | 99 | 1014.3 |
| 20260831004004 | 20 | 313 | 1.6 | 1.6 | 0.00 | 0.03 | 0.03 | 99 | 1014.3 |
| 20260831003003 | 20 | 333 | 1.6 | 1.6 | 0.00 | 0.03 | 0.03 | 99 | 1014.0 |
| 20260831001004 | 20 | 354 | 1.6 | 1.6 | 0.00 | 0.03 | 0.03 | 99 | 1014.2 |
| 20260831000004 | 20 | 351 | 1.6 | 4.8 | 0.00 | 0.03 | 0.03 | 99 | 1014.0 |
| 20260830235003 | 20 | 0 | 0.0 | 3.2 | 0.00 | 0.08 | 0.03 | 99 | 1014.1 |
| 20260830234004 | 20 | 48 | 1.6 | 3.2 | 0.00 | 0.20 | 0.03 | 99 | 1013.9 |
| 20260830233004 | 20 | 5 | 1.6 | 3.2 | 0.00 | 0.28 | 0.03 | 99 | 1013.8 |
| 20260830232003 | 20 | 30 | 1.6 | 4.8 | 0.00 | 0.28 | 0.03 | 99 | 1013.7 |
| 20260830225003 | 21 | 353 | 1.6 | 3.2 | 0.00 | 0.36 | 0.03 | 99 | 1013.7 |
| 20260830224004 | 21 | 44 | 0.0 | 3.2 | 0.00 | 0.43 | 0.03 | 99 | 1013.5 |
| 20260830223004 | 21 | 6 | 0.0 | 1.6 | 0.00 | 0.48 | 0.03 | 99 | 1013.6 |
| 20260830221003 | 21 | 4 | 0.0 | 1.6 | 0.00 | 0.61 | 0.03 | 99 | 1013.9 |
| 20260830220004 | 21 | 5 | 1.6 | 1.6 | 0.00 | 0.61 | 0.03 | 99 | 1014.0 |
| 20260830215004 | 21 | 350 | 1.6 | 4.8 | 0.00 | 0.64 | 0.03 | 99 | 1014.0 |
| 20260830214004 | 21 | 20 | 0.0 | 3.2 | 0.00 | 0.66 | 0.03 | 99 | 1013.8 |
| 20260830213003 | 21 | 349 | 0.0 | 1.6 | 0.00 | 0.66 | 0.03 | 99 | 1013.8 |
| 20260830212003 | 21 | 11 | 0.0 | 3.2 | 0.00 | 0.66 | 0.03 | 99 | 1013.8 |
| 20260830211003 | 21 | 336 | 1.6 | 3.2 | 0.00 | 0.66 | 0.03 | 99 | 1013.7 |
| 20260830210004 | 21 | 69 | 0.0 | 3.2 | 0.00 | 0.66 | 0.03 | 99 | 1013.5 |
| 20260830205004 | 21 | 347 | 1.6 | 1.6 | 0.00 | 0.66 | 0.03 | 99 | 1013.9 |
| 20260830204003 | 21 | 0 | 1.6 | 1.6 | 0.00 | 0.66 | 0.03 | 98 | 1014.1 |
| 20260830202004 | 21 | 358 | 1.6 | 1.6 | 0.00 | 0.66 | 0.03 | 98 | 1014.1 |
| 20260830201004 | 21 | 351 | 1.6 | 4.8 | 0.00 | 0.66 | 0.03 | 98 | 1013.9 |
| 20260830193004 | 22 | 329 | 1.6 | 3.2 | 0.00 | 0.71 | 0.03 | 97 | 1014.1 |
| 20260830192004 | 21 | 330 | 1.6 | 3.2 | 0.00 | 0.71 | 0.03 | 97 | 1013.9 |
| 20260830191003 | 21 | 4 | 1.6 | 4.8 | 0.00 | 0.71 | 0.03 | 97 | 1014.0 |
| 20260830190004 | 21 | 90 | 0.0 | 3.2 | 0.00 | 0.71 | 0.03 | 97 | 1013.6 |
| 20260830185004 | 21 | 350 | 1.6 | 4.8 | 0.00 | 0.74 | 0.03 | 97 | 1013.5 |
| 20260830184004 | 21 | 349 | 1.6 | 3.2 | 0.00 | 0.76 | 0.03 | 97 | 1013.7 |
| 20260830183004 | 21 | 18 | 3.2 | 4.8 | 0.00 | 0.79 | 0.03 | 97 | 1013.6 |
| 20260830182004 | 21 | 20 | 0.0 | 4.8 | 0.00 | 0.79 | 0.03 | 99 | 1013.5 |
| 20260830181004 | 21 | 21 | 0.0 | 3.2 | 0.00 | 0.81 | 0.03 | 99 | 1013.7 |
| 20260830180004 | 21 | 358 | 1.6 | 3.2 | 0.00 | 0.81 | 0.03 | 99 | 1013.7 |
| 20260830175004 | 21 | 348 | 1.6 | 4.8 | 0.00 | 0.84 | 0.03 | 99 | 1013.8 |
| 20260830174003 | 21 | 43 | 1.6 | 3.2 | 0.00 | 0.84 | 0.03 | 98 | 1013.7 |
| 20260830173004 | 21 | 24 | 1.6 | 3.2 | 0.00 | 0.86 | 0.03 | 98 | 1013.8 |
| 20260830172003 | 21 | 45 | 1.6 | 4.8 | 0.00 | 0.86 | 0.03 | 99 | 1013.9 |
| 20260830171003 | 21 | 22 | 0.0 | 4.8 | 0.00 | 0.86 | 0.03 | 99 | 1013.9 |
| 20260830170004 | 20 | 2 | 1.6 | 4.8 | 0.00 | 0.86 | 0.03 | 99 | 1014.0 |
| 20260830165004 | 20 | 32 | 1.6 | 3.2 | 0.00 | 0.86 | 0.03 | 99 | 1014.1 |
| 20260830163004 | 19 | 28 | 1.6 | 8.0 | 0.00 | 0.86 | 0.03 | 99 | 1014.3 |
| 20260830162004 | 19 | 55 | 1.6 | 3.2 | 0.00 | 0.86 | 0.03 | 99 | 1014.2 |
| 20260830161004 | 19 | 28 | 1.6 | 3.2 | 0.00 | 0.86 | 0.03 | 99 | 1014.5 |
| 20260830160003 | 19 | 39 | 1.6 | 3.2 | 0.00 | 0.86 | 0.03 | 99 | 1014.5 |
| 20260830155004 | 19 | 27 | 1.6 | 3.2 | 0.00 | 0.86 | 0.03 | 99 | 1014.2 |
| 20260830154004 | 19 | 347 | 1.6 | 3.2 | 0.00 | 0.86 | 0.03 | 99 | 1014.1 |
| 20260830153004 | 19 | 6 | 1.6 | 3.2 | 0.00 | 0.86 | 0.03 | 99 | 1013.9 |
| 20260830152003 | 19 | 27 | 1.6 | 3.2 | 0.00 | 0.86 | 0.03 | 99 | 1013.7 |
| 20260830151004 | 19 | 4 | 1.6 | 3.2 | 0.00 | 0.86 | 0.03 | 99 | 1013.7 |
| 20260830145004 | 19 | 351 | 1.6 | 3.2 | 0.00 | 0.86 | 0.03 | 99 | 1013.9 |
| 20260830142003 | 18 | 45 | 1.6 | 1.6 | 0.00 | 0.86 | 0.03 | 99 | 1013.7 |
| 20260830140004 | 18 | 47 | 0.0 | 1.6 | 0.00 | 0.86 | 0.03 | 99 | 1013.8 |
| 20260830135003 | 18 | 357 | 0.0 | 1.6 | 0.00 | 0.86 | 0.03 | 99 | 1013.9 |
| 20260830134004 | 18 | 316 | 0.0 | 3.2 | 0.00 | 0.86 | 0.03 | 99 | 1013.8 |
| 20260830133004 | 18 | 343 | 0.0 | 3.2 | 0.00 | 0.86 | 0.03 | 99 | 1013.6 |
| 20260830132004 | 18 | 343 | 1.6 | 3.2 | 0.00 | 0.86 | 0.03 | 99 | 1013.7 |
| 20260830131004 | 18 | 0 | 1.6 | 3.2 | 0.00 | 0.86 | 0.03 | 99 | 1013.9 |
| 20260830124004 | 17 | 17 | 1.6 | 3.2 | 0.00 | 0.86 | 0.03 | 99 | 1013.9 |
| 20260830123004 | 17 | 335 | 1.6 | 3.2 | 0.00 | 0.86 | 0.03 | 99 | 1014.0 |
| 20260830121004 | 17 | 11 | 1.6 | 1.6 | 0.00 | 0.86 | 0.03 | 99 | 1013.7 |
| 20260830120004 | 17 | 5 | 0.0 | 1.6 | 0.00 | 0.86 | 0.03 | 99 | 1013.7 |